Location: Zagreb
(45.8000°N, 16.0000°E)
Time: 22:36:07
(UTC+01:00)

Vanguard 2 Rocket - Pass Details

Date: 27 January 2020
Orbit: 553 x 3327 km, 32.9° (Epoch: 24 February)

Event Time Altitude Azimuth Distance (km) Brightness Sun altitude
Exits shadow 04:32:56 14° 161° (SSE) 1,835 8.6 -29.8°
Maximum altitude 04:33:06 14° 159° (SSE) 1,845 8.6 -29.7°
Drops below altitude 10° 04:35:35 10° 129° (SE) 2,281 9.5 -29.3°
Sets 04:39:50 0° 104° (ESE) 3,652 11.1 -28.6°
